Aérodrome :
LOGIN :

S'inscrire | Disclaimer

   EN    FR    IT 

 










Légende :    VFR   VFR Marginal   IFR   IFR Intensif   IFR Très Intensif
Visi : 
Plafond : 
>= 8 km
>= 3000ft
5 à 8 km
1000 à 3000 ft
1500m à 5 km
500 à 1000 ft
800 à 1500m
200 à 500 ft
< 800m
< 200 ft
Symboles :   Orages  Brouillard  Fortes neiges  Fortes précipitations  Vent > 20 kt
SIGMETs :   Divers  Orages  Givrage  Turbulence  Onde Orograph.  Cendres Volcan.







- Altitude de l'aérodrome : 1302 ft
- Code IATA : GNB
- Voir les cartes d'approche


LFLS - Grenoble / St. Geoirs

DERNIER METAR :
  • 231130Z AUTO 32008KT 280V010 CAVOK 20/09 Q1023 NOSIG

METARs EXPIRÉS :
  • 231100Z AUTO 35009KT 300V030 CAVOK 20/09 Q1023 NOSIG
  • 231030Z AUTO 32007KT 270V010 CAVOK 19/09 Q1023 NOSIG
  • 231000Z AUTO VRB06KT CAVOK 19/08 Q1023 NOSIG
  • 230930Z AUTO 35005KT 300V040 CAVOK 18/07 Q1023 NOSIG
  • 230900Z AUTO 02006KT 330V070 CAVOK 18/07 Q1023 NOSIG

TAF TAF LFLS
Valide du 23 à 09h jusqu'au 24 à 09h UTC


230800Z 2309/2409 VRB02KT CAVOK
BECMG 2309/2312 36005KT
TEMPO 2312/2320 34010KT
ATIS : +33 4 76 65 55 89
Pas de NOTAMs connus pour ce terrain.



MET'MAP, la Météo Aéronautique d'un coup d'oeil ! - Copyright ORBIFLY Décembre 2007 - Disclaimer

ORBIFLY MET'MAP TEAM :

Programmation & Développement : Alexandra Zaïnal
Conception & Développement : Baudouin d'Aumeries
Co-Programmation & Développement : Marc-Olivier Méhu
Soutien technique & logistique : Manuel Goepfert

Contact : metmap@orbifly.com




SOURCES & CREDITS :

   NOAA